Weather History for YMAV - November, 2013

Change the Weather History Date:

Friday, November 22, 2013

  Actual Average (YMML) Record (YMML)
Temperature  
Mean Temperature 61 °F -  
Max Temperature 69 °F 71 °F 91 °F (1997)
Min Temperature 53 °F 50 °F 42 °F (1996)
Degree Days  
Heating Degree Days 4    
Growing Degree Days 11 (Base 50)    
Moisture  
Dew Point 51 °F    
Average Humidity 72    
Maximum Humidity 88    
Minimum Humidity 42    
Precipitation  
Precipitation 0.00 in - - ()
Sea Level Pressure  
Sea Level Pressure 29.77 in    
Wind  
Wind Speed 10 mph ()    
Max Wind Speed 22 mph    
Max Gust Speed 29 mph    
Visibility 6.2 miles    
Events Rain    
Averages and records for this station are not official NWS values.
T = Trace of Precipitation, MM = Missing Value Source: Averaged Metar Reports

Daily Weather History Graph

Daily Weather History Graph

Search for Another Location

Airport or City:

Trip Planner

Search our weather history database for the weather conditions in past years. The results will help you decide how hot, cold, wet, or windy it might be!

Date:

Astronomy

Nov. 22, 2013 Rise Set
Actual Time 5:56 AM AEDT 8:19 PM AEDT
Civil Twilight 5:26 AM AEDT 8:49 PM AEDT
Nautical Twilight 4:50 AM AEDT 9:26 PM AEDT
Astronomical Twilight 4:09 AM AEDT 10:07 PM AEDT
Moon 11:50 PM AEDT (11/22) 9:33 AM AEDT (11/22)
Length of Visible Light 15h 22m
Length of Day
14h 22m
Waning Gibbous, 83% of the Moon is Illuminated
Nov 22
Waning Gibbous
Nov 26
Last Quarter
Dec 3
New
Dec 10
First Quarter
Dec 17
Full

Hourly Weather History & Observations

Time (AEDT) Temp. Dew Point Humidity Pressure Visibility Wind Dir Wind Speed Gust Speed Precip Events Conditions
12:00 AM 57 °F 52 °F 79% 29.83 in - West 5.8 mph - -   Overcast
12:00 AM 57.2 °F 51.8 °F 82% 29.80 in 6.2 mi West 5.8 mph - N/A   Overcast
12:30 AM 57.2 °F 51.8 °F 82% 29.80 in 6.2 mi WNW 5.8 mph - N/A   Overcast
1:00 AM 57.2 °F 51.8 °F 82% 29.80 in 6.2 mi WNW 8.1 mph - N/A   Overcast
1:30 AM 55.4 °F 51.8 °F 88% 29.80 in 6.2 mi West 9.2 mph - N/A   Overcast
2:00 AM 55.4 °F 51.8 °F 88% 29.77 in 6.2 mi West 10.4 mph - N/A   Overcast
2:30 AM 55.4 °F 51.8 °F 88% 29.77 in 6.2 mi WNW 10.4 mph - N/A   Overcast
3:00 AM 56 °F 52 °F 82% 29.79 in - West 10.4 mph - -   Overcast
3:00 AM 55.4 °F 51.8 °F 88% 29.77 in 6.2 mi West 10.4 mph - N/A   Overcast
3:30 AM 55.4 °F 51.8 °F 88% 29.77 in 6.2 mi West 10.4 mph - N/A   Overcast
4:00 AM 55.4 °F 51.8 °F 88% 29.77 in 6.2 mi West 11.5 mph - N/A   Overcast
4:30 AM 55.4 °F 50.0 °F 82% 29.77 in 6.2 mi West 11.5 mph - N/A   Overcast
5:00 AM 53.6 °F 50.0 °F 88% 29.77 in 6.2 mi WNW 11.5 mph - N/A Rain Light Rain Showers
5:30 AM 53.6 °F 50.0 °F 88% 29.77 in 6.2 mi WNW 9.2 mph - N/A   Overcast
6:00 AM 54 °F 51 °F 84% 29.79 in - WNW 11.5 mph - -  
6:00 AM 53.6 °F 50.0 °F 88% 29.77 in 6.2 mi WNW 11.5 mph - N/A   Overcast
6:30 AM 53.6 °F 50.0 °F 88% 29.77 in 6.2 mi WNW 10.4 mph - N/A   Overcast
7:00 AM 55.4 °F 50.0 °F 82% 29.77 in 6.2 mi WNW 13.8 mph - N/A   Overcast
7:30 AM 55.4 °F 50.0 °F 82% 29.77 in 6.2 mi WNW 13.8 mph - N/A   Overcast
8:00 AM 55.4 °F 51.8 °F 88% 29.80 in 6.2 mi WNW 12.7 mph - N/A   Overcast
8:30 AM 57.2 °F 50.0 °F 77% 29.80 in 6.2 mi WNW 13.8 mph - N/A   Overcast
9:00 AM 58 °F 50 °F 67% 29.81 in - WNW 15.0 mph - -   Overcast
9:00 AM 57.2 °F 50.0 °F 77% 29.80 in 6.2 mi WNW 15.0 mph - N/A   Overcast
9:30 AM 59.0 °F 50.0 °F 72% 29.80 in 6.2 mi West 15.0 mph - N/A   Overcast
10:00 AM 60.8 °F 50.0 °F 68% 29.77 in 6.2 mi West 13.8 mph - N/A   Overcast
10:30 AM 64.4 °F 51.8 °F 64% 29.77 in 6.2 mi West 16.1 mph - N/A   Mostly Cloudy
11:00 AM 64.4 °F 48.2 °F 56% 29.77 in 6.2 mi NW 12.7 mph - N/A   Mostly Cloudy
11:30 AM 64.4 °F 48.2 °F 56% 29.77 in 6.2 mi NW 13.8 mph - N/A   Overcast
12:00 PM 65 °F 47 °F 42% 29.78 in - WNW 12.7 mph - -   Overcast
12:00 PM 66.2 °F 48.2 °F 52% 29.77 in 6.2 mi WNW 12.7 mph - N/A   Overcast
12:30 PM 66.2 °F 46.4 °F 49% 29.74 in 6.2 mi WNW 8.1 mph - N/A   Overcast
1:00 PM 64.4 °F 48.2 °F 56% 29.74 in 6.2 mi WNW 12.7 mph - N/A   Overcast
1:30 PM 66.2 °F 48.2 °F 52% 29.74 in 6.2 mi West 15.0 mph - N/A   Overcast
2:00 PM 69.8 °F 48.2 °F 46% 29.74 in 6.2 mi WNW 13.8 mph - N/A   Overcast
2:35 PM 69.8 °F 51.8 °F 53% 29.74 in 6.2 mi WNW 17.3 mph 28.8 mph N/A   Overcast
3:00 PM 67 °F 53 °F 50% 29.75 in - West 19.6 mph - -   Overcast
3:00 PM 66.2 °F 51.8 °F 60% 29.74 in 6.2 mi West 19.6 mph - N/A   Overcast
3:30 PM 66.2 °F 50.0 °F 56% 29.74 in 6.2 mi West 21.9 mph - N/A   Overcast
4:00 PM 66.2 °F 51.8 °F 60% 29.74 in 6.2 mi WSW 18.4 mph - N/A   Mostly Cloudy
4:30 PM 66.2 °F 50.0 °F 56% 29.74 in 6.2 mi West 16.1 mph - N/A   Mostly Cloudy
5:00 PM 64.4 °F 51.8 °F 64% 29.74 in 6.2 mi West 16.1 mph - N/A   Overcast
5:30 PM 66.2 °F 51.8 °F 60% 29.74 in 6.2 mi West 15.0 mph - N/A   Overcast
6:00 PM 64 °F 51 °F 54% 29.75 in - West 13.8 mph - -   Overcast
6:00 PM 64.4 °F 51.8 °F 64% 29.74 in 6.2 mi West 13.8 mph - N/A   Overcast
6:30 PM 64.4 °F 51.8 °F 64% 29.74 in 6.2 mi WNW 12.7 mph - N/A   Overcast
7:00 PM 62.6 °F 50.0 °F 63% 29.74 in 6.2 mi WNW 13.8 mph - N/A   Overcast
7:30 PM 62.6 °F 51.8 °F 68% 29.74 in 6.2 mi WNW 15.0 mph - N/A   Overcast
8:00 PM 60.8 °F 53.6 °F 77% 29.74 in 6.2 mi WNW 11.5 mph - N/A   Drizzle
8:30 PM 60.8 °F 51.8 °F 72% 29.74 in 6.2 mi West 11.5 mph - N/A   Mostly Cloudy
9:00 PM 60 °F 52 °F 68% 29.77 in - West 8.1 mph - -   Overcast
9:00 PM 59.0 °F 51.8 °F 77% 29.74 in 6.2 mi West 8.1 mph - N/A   Overcast
9:30 PM 59.0 °F 51.8 °F 77% 29.77 in 6.2 mi West 8.1 mph - N/A   Mostly Cloudy
10:00 PM 59.0 °F 51.8 °F 77% 29.77 in 6.2 mi West 10.4 mph - N/A   Overcast
10:30 PM 57.2 °F 51.8 °F 82% 29.77 in 6.2 mi West 10.4 mph - N/A   Mostly Cloudy
11:00 PM 57.2 °F 50.0 °F 77% 29.77 in 6.2 mi West 12.7 mph - N/A   Mostly Cloudy
11:30 PM 55.4 °F 51.8 °F 88% 29.74 in 6.2 mi West 5.8 mph - N/A   Mostly Cloudy